Location: Rounton
(54.4000°N, 1.3500°W)
Time: 12:45:04
(UTC+00:00)

Transit 4A - Pass Details

Date: 07 December 2021
Orbit: 864 x 981 km, 66.8° (Epoch: 18 January)

Event Time Altitude Azimuth Distance (km) Brightness Sun altitude
Rises 00:01:28 0° 303° (WNW) 3,555 - -58.2°
Reaches altitude 10° 00:04:21 10° 315° (NW) 2,632 - -58.2°
Maximum altitude 00:09:35 28° 13° (NNE) 1,690 - -58.1°
Drops below altitude 10° 00:14:56 10° 72° (ENE) 2,696 - -58.0°
Sets 00:17:55 0° 83° (E) 3,657 - -58.0°
